Weather in Mutnitsa

Russia / Komi Republic     59°28′55″N   49°31′00″E
temp.,
°C
wind,
m/s
gust,
m/s
humid.,
%
clouds,
%
prec.,
mm/h
press.,
hPa
HPBL,
m
8 may, sat
sat800:00+7w389167 1.3 1013621
03:00+4sw279715 1.3 1015202
06:00+7w24810 0.0 1017218
09:00+12wsw12540 0.0 10181034
12:00+15sse123823 0.0 10171665
15:00+15se34345 0.0 10161927
18:00+14se254798 0.0 1014231
21:00+9se2107194 0.0 1014259
9 may, sun
sun900:00+9se3128891 0.0 1013384
03:00+9se41490100 0.1 1012489
06:00+11se51480100 0.0 1011608
09:00+15sse6126294 0.0 10101119
12:00+15s51159100 0.0 10101254
15:00+14s51372100 0.4 10121100
18:00+15s51371100 0.0 10111050
21:00+13ssw41177100 0.1 1013818
10 may, mon
mon1000:00+11wsw3896100 2.5 1013546
03:00+9w2793100 4.8 1016478
06:00+7wnw4794100 0.9 1019556
09:00+6nw4790100 1.6 1022794
12:00+10nnw57545 0.0 10241516
15:00+12nw563932 0.0 10262214
18:00+11nw2548100 0.0 1027497
21:00+6wnw22662 0.0 102911
11 may, tue
tue1100:00+5wnw11724 0.0 103010
03:00+4wsw11735 0.0 103110
06:00+8sw2462100 0.0 1031162
09:00+9sw3765100 0.0 1032351
12:00+11sw475999 0.0 1031588
15:00+17wsw465867 0.0 10291227
18:00+16sw3868100 0.0 1028556
21:00+12sw3108891 0.0 1028224
12 may, wed
wed1200:00+10wsw3109593 0.0 1029193
03:00+10w299554 0.0 1029181
06:00+13w388098 0.0 1029271
09:00+18wnw4660100 0.0 1028816
12:00+21wnw454875 0.0 10281379
15:00+22wnw464587 0.0 10271540
18:00+20wnw2657100 0.0 1027246
21:00+14wnw22776 0.0 102727